Weather in Rodnikovyj

Russia / Republic of Adygea     44°40′35″N   40°00′30″E
temp.,
°C
wind,
m/s
gust,
m/s
humid.,
%
clouds,
%
prec.,
mm/h
press.,
hPa
HPBL,
m
16 june, wed
wed1600:00+18sw11890 0.0 101011
03:00+17ssw01915 0.0 101011
06:00+17wnw369775 1.0 1011237
09:00+17wnw2493100 1.4 1011331
12:00+17sw3397100 1.2 1011210
15:00+20wsw1190100 1.6 1009345
18:00+21e238651 0.3 1007342
21:00+19ene23950 0.6 100637
17 june, thu
thu1700:00+19sse339591 0.9 100552
03:00+18w349717 4.4 100581
06:00+18nw4897100 4.1 1008358
09:00+20n348990 4.4 1011507
12:00+22ssw248054 4.7 1012470
15:00+25w55564 5.6 10131426
18:00+21w69721 0.4 1015743
21:00+16wnw338993 0.5 101753
18 june, fri
fri1800:00+14se119223 0.0 101810
03:00+14sse22936 0.0 101812
06:00+16se23923 0.0 101993
09:00+21ene11680 0.0 1018602
12:00+24ne335912 0.0 10171097
15:00+25ne44590 0.0 10171328
18:00+24ne35690 0.0 1016875
21:00+19ene47920 0.0 1017120
19 june, sat
sat1900:00+18e35940 0.0 101689
03:00+17e34930 0.0 101675
06:00+18e38890 0.0 1016225
09:00+24e711710 0.0 1015936
12:00+28e9116022 0.0 10141550
15:00+28ene912641 0.0 10131449
18:00+27e814680 0.0 10121283
21:00+24e817620 0.0 1013731
20 june, sun
sun2000:00+22e715620 0.0 1012598
03:00+20e511660 0.0 1012375
06:00+19e510790 0.0 1012322
09:00+24e45700 0.0 1012583
12:00+28e44630 0.0 1011987
15:00+30e55607 0.0 10101245
18:00+29e46690 0.0 1010582
21:00+24e35850 0.0 101083